Accueil
METAR-TAF:

METAR-TAF

Aéroports :

Monte Argentario, Italie

latitude: 42-23N, longitude: 011-10E, altitude: 630 m

Observation

Le bulletin a été fait il y a 33 minutes, à 08:55 UTC
Vent 6 kt de nord-est
Température 13°C
Humidité 38%
Pression 1026 hPa
Visibilité 10 km ou plus
Quelques nuages à une hauteur de 1000 ft

METAR: LIQO 270855Z 05006KT 9999 FEW010 13/M01 Q1026

Heure: 11:28 (09:28 UTC)


TAF: absent

Observations et prévisions météorologiques de plus de 4000 aéroports (messages METAR et TAF).

Les stations disponibles sont représentées par des disques jaunes et rouges sur la carte.

Passer la souris dessus pour voir le nom de la station.

Cliquer dessus pour voir les observations et prévisions météorologiques.

Pour changer de carte: cliquez sur les boutons verts avec une croix noire pour zoomer, sur le bouton vert avec un tiret pour effectuer un zoom arrière, ou sur les flèches vertes pour les cartes adjacentes.


METAR-TAF: